This demonstration page uses our WeatherBlox Daily Observations layout. Learn more.

Left ArrowRight Arrow

39.08367, -84.50855

Hourly Observations for April 1, 2015

Temp ( °F °C ) Dew Point ( °F °C ) Humidity (%) Winds ( mph kmh ) Pressure ( in mb ) Visibility ( mi km ) Precip ( " mm )
12:53 am 00:53 Clear 42 5.6 35 1.7 76 76 ENE 9 15 30.06 1018 10 16.0934 0 0
1:53 am 01:53 Clear 37 2.8 33 0.6 86 86 NE 6 9 30.07 1018 10 16.0934 0 0
2:53 am 02:53 Clear 36 2.2 32 0 86 86 Calm 30.08 1019 10 16.0934 0 0
3:53 am 03:53 Clear 34 1.1 32 0 92 92 Calm 30.07 1018 10 16.0934 0 0
4:53 am 04:53 Clear 32 0 31 -0.6 96 96 Calm 30.08 1019 8 12.87472 0 0
5:53 am 05:53 Clear with Mist and Fog 31 -0.6 30 -1.1 96 96 Calm 30.09 1019 6 9.65604 0 0
6:53 am 06:53 Clear with Patchy Fog 31 -0.6 30 -1.1 96 96 Calm 30.11 1020 10 16.0934 0 0
7:53 am 07:53 Sunny with Patchy Fog 31 -0.6 31 -0.6 100 100 Calm 30.14 1021 7 11.26538 0 0
8:53 am 08:53 Sunny 36 2.2 35 1.7 97 97 Calm 30.16 1021 10 16.0934 0 0
9:53 am 09:53 Sunny 44 6.7 36 2.2 73 73 SSW 7 11 30.17 1022 10 16.0934 0 0
10:53 am 10:53 Sunny 50 10 36 2 58 58 SSW 9 15 30.18 1022 10 16.0934 0 0
11:53 am 11:53 Sunny 55 12.8 35 1.7 47 47 SW 8 13 30.18 1022 10 16.0934 0 0
12:53 pm 12:53 Sunny 59 15 35 1.7 41 41 SSW 7 11 30.16 1022 10 16.0934 0 0
1:53 pm 13:53 Sunny 62 16.7 34 1.1 35 35 WSW 5 7 30.14 1021 10 16.0934 0 0
2:53 pm 14:53 Sunny 64 17.8 33 0.6 32 32 SE 8 13 30.12 1020 10 16.0934 0 0
3:53 pm 15:53 Sunny 65 18.3 33 0.6 31 31 VRB 7 11 30.1 1019 10 16.0934 0 0
4:53 pm 16:53 Sunny 66 18.9 30 -1.1 26 26 VRB 6 9 30.09 1019 10 16.0934 0 0
5:53 pm 17:53 Sunny 65 18.3 30 -1.1 27 27 S 9 15 30.09 1019 10 16.0934 0 0
6:53 pm 18:53 Sunny 64 17.8 30 -1.1 28 28 SE 8 13 30.09 1019 10 16.0934 0 0
7:53 pm 19:53 Sunny 60 15.6 29 -1.7 31 31 SE 6 9 30.08 1019 10 16.0934 0 0
8:53 pm 20:53 Clear 54 12.2 31 -0.6 42 42 SSW 3 6 30.09 1019 10 16.0934 0 0
9:53 pm 21:53 Clear 49 9.4 37 2.8 64 64 Calm 30.09 1019 10 16.0934 0 0
10:53 pm 22:53 Clear 44 6.7 34 1.1 68 68 Calm 30.09 1019 10 16.0934 0 0
11:53 pm 23:53 Clear 43 6.1 35 1.7 74 74 Calm 30.07 1018 10 16.0934 0 0

Powered by AerisWeather